Wind_Speed
27 26 24 25 25 24 24 23 23 24 24 24 23 22 23 24 23 24 24 24 24 24 24 24 24 24 24 24 24 24 24 25 25 26 26 27 27 28 29 30 31 32 33 33
28 26 26 26 26 25 25 25 25 26 26 25 24 22 24 25 24 25 25 25 25 25 24 24 25 25 25 26 26 26 26 26 27 27 27 28 29 30 31 32 33 34 34 35
29 27 28 28 27 27 26 26 26 27 27 27 26 22 24 26 26 25 26 26 25 25 25 25 26 26 27 27 27 27 27 28 28 29 29 30 30 32 33 34 35 36 37 38
30 29 29 29 28 28 27 28 28 28 28 27 28 25 21 25 26 26 26 26 25 25 26 26 27 27 28 28 28 28 29 29 29 30 31 32 32 33 34 36 36 37 38 40
30 29 29 29 29 29 29 29 30 30 30 29 27 29 20 24 26 26 26 26 26 26 26 27 28 28 28 29 29 29 30 30 31 32 33 34 35 35 36 37 38 39 40 42
31 30 30 30 30 30 30 31 31 31 31 30 27 29 24 24 25 26 26 26 26 26 27 28 28 29 29 30 30 31 31 32 33 34 35 36 37 37 38 39 40 41 42 44
30 30 30 30 30 30 30 31 32 32 31 30 28 28 25 25 25 26 26 26 27 27 28 28 29 30 30 31 31 32 33 34 35 36 37 38 39 40 40 41 42 43 45 46
31 30 30 30 30 30 30 31 32 34 33 31 29 28 25 25 26 26 27 27 28 28 29 29 30 31 32 32 33 34 35 36 37 38 39 40 41 42 42 43 45 46 47 48
32 31 30 30 30 30 30 30 31 34 35 34 31 28 24 25 27 27 28 28 29 29 30 30 31 32 33 34 35 36 37 38 39 40 41 42 43 44 45 46 47 48 49 50
32 32 31 30 31 30 31 31 31 33 36 35 32 28 26 25 27 28 29 29 30 30 31 31 32 33 34 35 37 38 39 39 40 41 42 43 44 45 46 47 48 50 51 52
32 33 32 31 31 31 31 32 33 35 36 37 35 29 26 26 27 28 30 30 30 31 31 32 33 35 36 37 38 39 40 41 42 43 44 45 46 47 48 49 50 52 53 54
32 33 32 31 31 31 32 32 33 35 36 37 37 31 26 27 29 31 32 32 31 32 32 33 35 36 37 38 39 40 41 42 43 44 45 46 48 49 50 51 52 54 55 56
34 35 34 32 32 32 33 32 33 35 37 38 38 33 28 29 31 33 34 33 33 33 34 35 36 37 38 39 40 41 42 44 45 46 47 48 49 51 52 53 54 56 57 58
35 35 34 33 32 33 33 33 34 36 38 38 36 34 30 31 34 36 36 35 35 35 35 36 37 38 39 40 41 42 44 45 46 47 49 50 51 52 53 55 56 58 59 61
35 35 34 34 34 35 35 35 35 36 37 38 36 35 30 32 35 36 36 36 36 36 37 37 38 39 41 41 42 44 45 46 47 48 50 51 52 54 55 56 58 60 61 63
36 36 36 36 35 36 37 36 36 37 37 37 37 35 32 35 36 37 37 37 37 38 38 39 40 41 41 42 44 45 46 47 49 50 51 53 54 55 57 58 60 62 63 65
37 37 37 36 35 38 38 33 34 36 36 37 38 36 35 36 36 37 38 38 39 39 40 40 41 42 42 43 44 46 47 49 50 52 53 55 56 57 59 60 62 64 65 67
37 37 37 38 38 40 35 33 34 35 35 36 37 36 36 36 37 37 38 39 40 40 41 41 42 42 43 44 46 47 49 50 52 53 55 56 58 59 61 62 64 66 67 68
37 38 39 40 40 40 35 33 34 36 36 34 36 36 37 37 37 37 38 39 40 41 41 42 42 43 44 46 47 49 50 52 53 55 57 58 59 61 63 64 66 67 68 69
37 38 39 40 41 40 34 33 34 36 36 34 35 36 36 37 37 37 39 40 40 41 42 42 43 45 46 48 49 51 52 53 55 57 58 59 61 63 64 65 67 68 70 71
37 37 38 39 41 39 35 35 35 36 35 35 35 35 36 37 38 39 40 40 41 42 43 44 45 47 48 49 51 52 54 55 57 58 59 61 62 64 65 67 69 70 72 74
36 37 38 39 40 38 36 36 36 36 36 36 36 36 37 37 39 39 40 41 42 43 45 46 47 48 49 50 52 53 55 57 58 59 60 61 63 65 67 69 71 73 75 77
36 37 38 39 38 37 38 38 38 37 37 37 37 37 37 38 39 40 41 41 43 44 46 47 48 50 51 52 54 55 57 58 59 60 61 63 65 67 69 71 73 75 78 79
38 39 40 39 37 38 38 39 39 38 38 38 39 39 39 40 41 42 42 44 45 46 47 48 49 50 52 53 55 57 58 59 59 61 63 65 67 69 71 73 75 78 79 80
38 39 38 38 37 38 38 38 38 39 39 40 40 41 41 42 42 43 44 45 46 47 48 49 50 52 53 55 56 57 58 59 61 63 65 67 69 71 73 75 78 79 80 81
38 37 37 37 36 37 37 37 38 40 40 41 42 43 43 43 44 44 45 46 47 48 49 50 51 53 54 55 56 58 59 61 63 65 67 70 72 74 76 78 79 80 80 80
Wind_Direction
247 249 252 255 258 261 262 263 266 268 270 271 273 274 275 276 277 278 280 281 283 284 285 286 287 288 289 291 292 292 291 291 292 293 294 294 294 294 295 295 295 295 295 295
247 249 252 254 257 260 262 264 266 268 271 272 273 274 274 275 276 276 278 280 281 282 283 284 285 287 288 289 290 290 291 291 292 293 293 294 295 295 296 296 296 296 295 295
247 247 250 254 257 261 264 265 266 268 270 273 274 272 273 273 275 275 277 279 280 281 281 283 285 286 288 289 289 290 291 292 292 293 294 294 295 295 296 297 297 297 296 296
245 246 250 254 258 260 263 266 267 268 270 273 276 275 269 273 275 276 276 278 279 280 281 282 284 286 287 288 289 290 291 291 292 293 294 295 295 296 297 297 297 297 297 297
246 248 251 254 258 261 263 266 268 270 272 274 277 278 272 273 275 276 276 276 277 279 281 282 284 285 287 288 289 289 290 292 293 294 294 295 296 297 298 298 298 298 298 298
246 248 250 254 257 261 264 265 268 270 273 275 276 278 278 277 277 277 276 276 278 279 281 282 284 285 286 287 287 289 291 292 294 294 295 296 297 298 298 299 299 299 299 299
248 250 252 254 257 260 263 266 270 272 274 276 276 277 281 280 278 277 276 277 278 279 280 282 283 284 285 286 287 289 291 293 294 295 295 296 297 298 298 299 299 300 300 300
248 249 252 255 258 260 262 266 270 275 277 277 277 278 282 282 280 278 277 277 278 279 280 282 283 284 285 286 288 289 291 293 294 295 296 297 298 299 299 300 300 300 300 301
249 250 251 254 256 259 262 266 270 274 276 278 278 280 281 282 280 279 279 278 279 280 281 283 283 284 286 287 288 290 292 293 294 296 297 298 299 300 300 300 300 301 301 301
248 250 250 252 255 257 261 265 268 272 276 279 280 281 284 283 281 279 279 279 280 281 282 283 284 285 286 287 289 291 292 294 295 296 297 298 299 300 300 301 301 301 302 302
248 251 251 252 254 258 261 264 268 270 274 279 281 282 284 284 281 280 279 280 281 282 282 283 284 285 287 288 290 291 293 294 295 297 298 299 300 300 301 301 301 302 302 303
247 250 252 252 255 258 261 264 267 270 274 276 279 282 283 282 281 280 280 280 281 282 283 284 285 286 288 289 291 292 294 295 296 297 298 299 300 300 301 301 302 303 303 304
246 250 253 254 256 258 261 264 266 269 271 274 278 282 283 281 280 279 279 280 281 283 284 285 286 287 288 290 291 293 294 295 296 298 299 299 300 300 301 302 303 303 304 304
247 251 254 258 260 261 262 264 265 268 272 275 277 280 279 281 279 278 279 281 282 284 285 286 287 288 289 290 292 293 295 296 297 298 299 300 300 301 302 302 303 304 304 305
248 252 255 257 259 261 263 264 266 269 272 275 278 278 280 277 276 277 280 281 283 285 287 287 288 289 290 291 292 294 295 296 297 298 299 300 300 301 302 303 303 304 305 305
251 254 256 258 259 262 264 266 269 270 272 275 277 278 279 276 277 278 280 282 284 286 287 288 289 290 291 292 293 295 296 297 298 299 299 300 301 302 303 303 304 305 305 306
251 255 258 260 261 263 266 270 270 270 271 274 276 279 278 277 278 279 281 283 285 286 288 289 290 291 292 293 294 295 296 297 299 299 300 300 301 302 303 304 304 305 306 306
252 255 259 261 263 264 270 270 270 270 270 273 275 278 279 280 280 281 283 284 286 287 289 289 290 291 293 293 294 296 297 298 299 300 300 301 302 303 303 304 305 306 306 307
252 255 258 262 264 268 269 272 273 271 271 273 276 278 279 281 282 283 285 287 288 289 290 291 291 292 293 294 296 297 298 299 300 300 301 302 302 303 304 305 306 306 307 307
252 256 259 263 267 270 273 272 272 273 274 275 276 278 280 282 283 284 286 287 288 289 290 291 292 293 294 296 297 298 299 299 300 301 302 302 303 304 305 306 306 307 307 308
253 256 260 264 267 269 275 276 275 275 278 277 278 280 282 284 285 286 286 287 288 289 291 292 293 294 295 297 297 298 299 300 301 302 303 303 304 305 306 306 307 307 307 308
254 258 261 265 267 270 272 274 275 277 277 278 280 282 284 285 286 286 287 289 290 291 292 293 294 295 296 297 298 299 300 301 302 303 303 304 305 306 306 307 307 308 308 309
256 260 263 265 268 270 271 273 274 275 277 279 281 283 285 285 287 288 289 290 291 292 293 294 295 296 297 299 300 300 301 302 303 304 304 305 306 306 307 307 308 308 309 309
258 260 262 265 267 269 270 272 274 276 277 279 281 284 285 287 288 289 290 291 292 293 295 296 297 298 299 300 301 301 302 303 304 304 305 306 306 307 308 308 309 310 310 310
259 261 263 266 267 268 269 271 273 276 278 280 282 285 287 287 288 289 291 293 294 295 296 297 298 299 300 301 302 302 303 304 305 306 306 307 307 308 308 309 310 310 311 311
260 262 264 266 266 267 268 270 273 275 278 280 283 285 286 287 289 291 292 294 295 296 297 298 299 300 301 302 302 303 304 305 306 307 307 308 308 309 309 309 310 311 311 311
Height
5820 5823 5824 5825 5826 5827 5827 5828 5828 5828 5827 5828 5828 5829 5828 5827 5827 5826 5825 5824 5823 5822 5821 5820 5818 5817 5815 5814 5812 5810 5808 5807 5805 5802 5800 5798 5796 5794 5791 5789 5787 5784 5781 5779
5815 5818 5819 5820 5821 5821 5822 5823 5823 5823 5822 5822 5823 5825 5824 5822 5822 5821 5820 5819 5818 5817 5816 5815 5813 5812 5810 5809 5807 5805 5803 5801 5799 5797 5795 5793 5790 5788 5785 5782 5780 5777 5774 5771
5809 5813 5813 5814 5816 5816 5817 5818 5818 5818 5817 5817 5818 5820 5819 5817 5816 5816 5815 5814 5813 5812 5811 5810 5808 5807 5805 5804 5802 5800 5798 5796 5794 5792 5789 5787 5784 5781 5778 5776 5772 5769 5766 5763
5803 5806 5808 5809 5810 5811 5812 5812 5812 5812 5811 5812 5812 5812 5816 5812 5811 5810 5809 5808 5808 5807 5806 5804 5803 5801 5800 5798 5796 5794 5792 5790 5788 5785 5783 5780 5777 5774 5771 5768 5765 5761 5758 5755
5798 5801 5802 5804 5805 5805 5806 5806 5806 5806 5805 5806 5807 5805 5811 5808 5806 5805 5804 5803 5802 5801 5800 5799 5797 5796 5794 5792 5791 5788 5786 5784 5781 5779 5776 5773 5770 5767 5764 5760 5757 5753 5749 5746
5792 5794 5796 5798 5799 5800 5800 5801 5800 5799 5799 5801 5802 5800 5803 5802 5801 5799 5798 5797 5796 5795 5794 5793 5791 5790 5788 5786 5784 5782 5780 5777 5775 5772 5769 5766 5763 5759 5756 5752 5748 5744 5740 5736
5787 5789 5790 5792 5793 5794 5795 5795 5794 5793 5793 5795 5795 5794 5797 5796 5794 5793 5792 5791 5790 5789 5788 5787 5785 5784 5782 5780 5778 5775 5773 5770 5767 5764 5761 5758 5755 5751 5747 5743 5739 5735 5731 5726
5780 5783 5785 5786 5788 5788 5789 5789 5789 5788 5787 5788 5788 5789 5792 5790 5788 5786 5786 5785 5784 5783 5782 5780 5779 5777 5775 5773 5771 5768 5765 5763 5760 5756 5753 5749 5746 5742 5738 5734 5730 5725 5721 5716
5774 5777 5779 5780 5781 5782 5783 5783 5783 5781 5779 5780 5782 5784 5786 5784 5782 5780 5779 5778 5777 5776 5775 5773 5772 5770 5768 5765 5763 5760 5758 5755 5751 5748 5744 5741 5737 5733 5728 5724 5719 5715 5710 5705
5767 5769 5772 5773 5775 5776 5777 5777 5777 5775 5773 5773 5775 5777 5779 5777 5775 5774 5772 5771 5770 5769 5768 5766 5764 5762 5760 5757 5755 5752 5749 5746 5743 5739 5735 5731 5727 5723 5718 5713 5709 5704 5698 5693
5760 5763 5765 5767 5769 5770 5771 5771 5770 5769 5768 5767 5766 5773 5772 5770 5768 5767 5765 5764 5763 5762 5760 5758 5756 5754 5752 5749 5746 5743 5740 5737 5733 5730 5726 5721 5717 5712 5707 5702 5697 5692 5686 5680
5753 5755 5757 5761 5762 5763 5763 5763 5763 5763 5762 5760 5759 5766 5766 5763 5760 5759 5757 5756 5755 5754 5752 5750 5748 5746 5743 5741 5738 5734 5731 5728 5724 5720 5716 5711 5706 5701 5696 5691 5685 5680 5674 5667
5746 5748 5751 5753 5756 5756 5756 5756 5756 5755 5754 5753 5752 5758 5758 5756 5753 5750 5749 5748 5747 5746 5744 5742 5740 5737 5735 5732 5729 5725 5722 5718 5714 5710 5705 5700 5695 5690 5685 5679 5673 5667 5661 5654
5739 5741 5744 5747 5748 5748 5749 5749 5748 5747 5746 5746 5746 5749 5750 5747 5744 5742 5741 5740 5739 5738 5736 5734 5731 5728 5725 5722 5719 5716 5712 5708 5704 5699 5694 5689 5684 5678 5673 5667 5660 5654 5647 5640
5731 5734 5736 5738 5739 5740 5740 5741 5740 5740 5739 5738 5739 5739 5741 5738 5735 5733 5732 5731 5730 5729 5727 5725 5722 5719 5716 5713 5709 5706 5702 5697 5693 5688 5683 5678 5672 5666 5660 5654 5647 5640 5633 5625
5724 5726 5728 5730 5731 5730 5731 5733 5733 5732 5731 5730 5730 5731 5732 5728 5727 5725 5724 5723 5721 5720 5717 5715 5712 5709 5706 5703 5699 5695 5691 5686 5682 5677 5671 5665 5660 5654 5647 5640 5633 5626 5619 5611
5716 5719 5720 5722 5722 5721 5723 5727 5725 5724 5724 5723 5721 5723 5722 5720 5718 5717 5716 5714 5712 5710 5708 5705 5702 5699 5696 5692 5689 5684 5680 5675 5670 5665 5659 5653 5647 5640 5634 5627 5619 5612 5604 5596
5709 5711 5711 5712 5713 5713 5720 5718 5717 5716 5716 5714 5713 5713 5712 5711 5710 5708 5707 5705 5703 5700 5698 5695 5692 5689 5685 5682 5678 5673 5669 5663 5658 5652 5646 5640 5633 5627 5620 5612 5605 5596 5588 5580
5701 5703 5703 5704 5703 5704 5710 5710 5708 5706 5707 5707 5705 5704 5703 5701 5700 5699 5697 5695 5693 5690 5688 5685 5682 5678 5675 5671 5666 5662 5657 5651 5645 5639 5633 5626 5620 5613 5605 5598 5589 5581 5573 5564
5693 5695 5696 5695 5694 5695 5702 5701 5699 5698 5698 5699 5696 5695 5694 5693 5692 5691 5688 5685 5683 5680 5677 5674 5671 5667 5663 5659 5655 5650 5644 5638 5632 5626 5619 5612 5605 5598 5590 5582 5573 5565 5556 5547
5685 5686 5687 5687 5686 5687 5692 5691 5690 5690 5691 5689 5687 5686 5685 5684 5683 5681 5678 5675 5672 5670 5667 5663 5660 5656 5652 5647 5643 5637 5632 5626 5619 5612 5605 5598 5590 5582 5574 5566 5557 5548 5539 5530
5677 5678 5679 5678 5678 5682 5683 5681 5681 5681 5680 5679 5678 5677 5676 5674 5672 5670 5668 5665 5662 5659 5656 5652 5649 5644 5640 5635 5630 5625 5619 5613 5606 5599 5591 5584 5575 5567 5558 5550 5540 5530 5520 5511
5668 5670 5670 5671 5673 5674 5673 5672 5671 5670 5670 5669 5668 5667 5666 5664 5662 5660 5657 5654 5651 5648 5645 5641 5637 5632 5627 5622 5617 5611 5605 5598 5592 5584 5577 5569 5561 5551 5542 5532 5523 5513 5502 5491
5659 5660 5661 5662 5664 5664 5663 5662 5661 5661 5660 5659 5658 5657 5656 5654 5651 5649 5646 5643 5640 5637 5633 5629 5624 5619 5614 5609 5603 5597 5591 5584 5577 5570 5562 5554 5545 5536 5526 5515 5505 5494 5483 5471
5650 5650 5651 5652 5654 5653 5653 5652 5652 5651 5650 5649 5648 5647 5645 5643 5641 5638 5635 5632 5629 5625 5621 5616 5612 5606 5601 5595 5589 5583 5576 5569 5563 5555 5547 5538 5529 5519 5509 5499 5488 5476 5465 5450
5641 5642 5642 5643 5644 5644 5644 5643 5643 5641 5640 5639 5638 5636 5634 5632 5630 5627 5624 5620 5617 5613 5608 5604 5599 5593 5588 5581 5575 5568 5561 5554 5547 5539 5531 5521 5512 5502 5491 5481 5472 5459 5446 5434